Wind_Speed
29 29 28 28 27 26 26 25 25 24 24 23 22 22 21 20 20 20 20 20 20 19 20 20 20 20 21 21 21 21 21 21 21 21 21 22 22 22 22 22 23 23 23
31 30 30 29 28 27 27 26 26 25 25 25 24 23 23 22 21 21 21 21 21 20 20 20 21 21 22 22 22 22 22 22 22 22 22 23 23 23 24 25 25 25 25
32 32 31 31 30 29 28 27 27 26 26 25 25 24 24 23 23 23 22 22 22 22 22 21 21 22 22 22 22 22 23 23 23 23 24 24 24 24 25 25 26 26 26
33 33 32 31 31 30 29 29 28 27 26 26 25 25 25 25 24 24 24 23 23 23 23 23 23 23 23 23 24 24 24 25 25 25 25 25 26 26 27 27 27 27 28
34 34 33 32 32 31 31 30 29 29 28 27 26 26 26 26 25 25 25 25 25 25 25 24 24 24 25 25 25 25 25 25 26 26 26 26 27 27 28 28 29 29 29
35 35 34 33 33 32 32 31 31 30 29 28 28 28 28 28 27 27 27 27 27 27 27 26 26 26 26 26 26 26 26 26 26 26 27 27 28 28 29 28 29 30 31
36 36 36 35 34 33 33 33 33 32 31 30 29 29 29 29 29 28 28 28 28 28 28 28 28 28 28 27 27 27 28 27 27 28 28 29 29 30 30 30 31 31 31
37 37 37 36 35 34 34 34 34 33 32 32 31 31 30 30 30 29 29 29 29 29 28 28 29 29 29 29 29 29 29 29 29 29 29 30 30 31 31 32 32 32 32
37 36 36 37 36 36 35 35 35 34 33 33 33 32 31 30 30 30 29 29 29 29 29 29 29 29 29 30 30 30 30 30 30 31 31 31 31 32 32 33 33 33 33
40 38 37 38 38 37 36 36 35 35 34 34 33 33 32 32 31 31 30 29 29 29 29 30 30 30 30 30 30 31 31 31 31 32 32 32 33 33 34 34 34 35 34
40 39 38 38 38 38 37 37 36 36 35 35 34 33 33 32 32 32 31 31 30 30 30 30 30 31 31 31 31 31 32 32 32 32 33 33 33 34 34 34 35 35 35
41 40 39 39 39 38 38 37 37 36 36 36 35 34 34 33 33 33 33 32 32 32 32 32 32 32 33 33 33 32 33 33 33 33 34 34 35 35 35 35 36 36 36
43 42 41 41 41 40 39 38 38 37 36 36 36 35 35 35 34 34 34 34 34 34 34 33 34 34 34 34 34 34 34 34 35 35 36 36 37 37 37 37 37 38 38
45 44 43 43 43 42 41 40 39 38 37 37 37 37 36 36 36 35 35 35 35 35 35 34 34 35 35 35 35 35 36 36 36 37 37 38 38 39 39 39 39 39 39
46 45 45 45 44 44 43 42 41 39 38 38 38 38 37 37 37 37 36 36 37 36 36 36 36 36 36 36 37 37 38 38 39 39 39 39 39 40 40 41 41 42 42
47 47 46 46 46 46 45 44 43 42 40 39 39 39 38 38 38 38 38 38 37 37 37 37 37 37 37 37 38 39 39 40 40 40 40 40 40 41 42 42 43 43 43
48 47 47 48 47 47 46 46 44 43 42 42 41 40 39 39 39 38 39 39 38 38 38 38 38 38 38 39 40 40 40 40 40 41 41 41 42 42 43 44 45 45 46
50 49 47 48 48 48 47 46 46 45 44 43 42 41 40 40 39 40 40 40 39 39 39 39 39 40 40 41 41 41 41 41 41 42 42 43 43 44 45 45 46 47 48
51 51 50 49 49 49 48 48 47 47 45 44 44 43 42 42 41 41 42 41 41 41 41 41 41 41 41 41 41 41 42 42 42 43 44 44 44 45 46 47 48 48 49
51 51 51 50 50 50 49 48 48 47 46 45 45 45 45 44 43 43 43 43 42 42 42 42 41 41 41 41 42 42 42 42 43 43 44 45 46 47 48 49 49 49 49
52 51 51 51 51 51 51 50 50 49 47 46 46 46 46 46 45 43 43 43 43 43 43 43 43 42 42 43 43 44 44 44 44 44 45 45 47 47 48 49 49 49 49
54 53 52 53 53 52 52 51 51 49 49 48 47 47 47 46 46 46 46 46 45 45 44 44 44 44 44 45 45 45 45 45 45 46 46 47 47 48 48 48 49 49 48
56 55 54 54 54 53 53 52 52 51 50 49 48 48 48 48 48 48 48 47 47 46 46 46 45 45 46 46 47 47 47 47 47 47 47 47 48 48 49 48 48 47 48
56 55 55 54 53 53 53 53 52 52 51 50 49 49 49 49 48 48 48 48 47 47 47 47 47 47 48 48 48 48 48 48 48 48 48 48 48 48 48 48 47 48 48
57 56 55 55 54 54 54 53 53 52 51 51 50 50 50 49 49 49 49 49 49 49 48 48 48 49 49 49 49 49 49 49 49 48 48 48 48 48 48 48 48 48 49
58 57 56 56 55 55 54 54 53 53 53 52 51 51 50 50 50 51 51 50 50 50 50 50 50 50 50 50 50 50 50 50 49 49 49 49 49 49 48 48 49 49 50
Wind_Direction
239 240 240 242 243 244 245 246 247 249 249 250 251 253 255 256 258 260 262 262 262 264 266 268 269 271 273 275 278 281 283 284 285 288 290 290 291 292 292 293 294 293 292
239 240 241 242 243 245 246 246 247 248 249 250 250 252 255 257 260 262 262 262 263 265 267 268 270 272 274 276 277 279 282 284 286 287 289 290 291 291 292 293 292 292 292
240 240 241 242 243 244 245 247 248 249 249 250 251 252 255 258 260 261 263 263 263 264 266 270 271 273 275 276 278 279 280 282 284 287 289 290 292 291 292 293 293 293 293
240 241 242 242 243 245 245 246 247 249 250 251 251 253 255 258 260 261 261 262 263 265 268 271 273 274 275 276 277 279 280 282 283 286 288 290 292 292 292 292 293 293 293
241 242 242 243 245 245 246 247 248 249 251 252 253 253 255 258 260 262 262 262 263 265 268 271 274 275 276 278 278 279 281 282 283 286 288 290 292 293 293 293 293 293 292
242 243 243 245 244 245 246 248 248 250 251 252 253 254 255 258 260 261 262 263 265 267 269 271 272 275 277 279 279 279 281 282 284 285 288 289 291 293 293 294 295 294 293
242 244 244 244 244 244 245 246 247 249 251 252 253 254 256 258 260 261 262 264 265 267 269 271 272 274 276 278 279 281 281 283 285 285 287 289 291 292 292 293 294 294 293
242 243 244 244 244 243 244 246 247 248 250 252 254 255 257 258 260 261 263 265 266 267 269 270 272 273 275 277 278 280 282 283 285 286 288 289 290 292 292 293 294 293 293
243 244 245 244 243 244 245 246 248 249 251 252 254 256 257 258 260 261 262 264 266 268 269 271 272 273 274 275 278 280 282 283 285 287 289 290 291 292 293 293 293 293 293
243 245 246 244 243 244 244 246 247 249 250 252 253 255 256 257 260 261 262 264 267 269 270 272 273 274 274 276 278 280 281 283 285 287 288 290 291 292 293 293 293 293 293
243 244 244 244 243 244 245 246 247 249 250 251 252 254 256 258 259 261 263 264 267 269 270 272 274 275 275 277 279 280 281 283 284 286 287 289 290 291 292 292 293 293 294
243 243 244 244 243 244 245 246 248 249 250 251 252 253 256 258 259 261 263 264 267 269 271 273 274 275 276 278 279 280 281 282 283 284 285 287 288 290 292 292 292 293 294
242 243 244 244 244 244 245 246 248 249 249 251 252 254 256 258 260 262 263 265 267 270 271 273 275 275 276 277 278 279 280 282 283 283 285 286 287 289 290 292 292 293 293
242 242 243 244 244 244 245 246 248 249 250 251 253 255 257 258 261 263 265 266 267 269 271 273 275 276 276 276 277 279 280 281 283 284 284 285 286 287 289 290 291 293 293
242 243 243 244 244 244 244 246 248 249 250 252 254 256 258 260 262 265 266 266 268 269 270 272 274 276 278 277 278 280 281 282 282 283 284 285 286 286 288 289 291 292 292
242 243 244 244 245 245 245 246 247 248 250 253 255 256 258 260 263 265 266 267 268 269 270 272 274 276 277 278 279 281 281 282 283 284 284 285 286 286 287 289 290 291 292
242 243 244 244 244 245 245 246 247 248 250 252 254 256 258 261 263 266 266 266 268 270 271 272 274 275 276 278 280 281 282 283 283 284 284 285 286 287 288 289 290 291 292
241 242 244 244 244 244 245 246 247 248 250 251 254 256 257 261 264 265 266 266 268 270 271 273 274 275 277 278 279 280 281 282 283 283 284 285 286 288 289 289 290 290 291
241 241 242 243 244 244 245 246 247 248 250 252 254 256 258 261 263 265 265 266 268 269 271 273 274 275 277 278 279 280 281 282 282 283 284 285 286 287 288 289 290 290 290
241 241 242 243 244 244 244 245 247 248 250 252 254 256 258 260 262 265 265 266 268 270 272 273 274 275 276 278 279 280 281 282 283 284 285 286 287 288 289 290 290 291 290
241 241 242 243 244 244 245 247 248 250 251 253 255 257 258 260 262 264 265 267 268 270 272 273 274 275 277 278 279 280 281 282 283 285 286 287 287 289 290 290 291 291 291
240 241 242 243 244 245 246 248 250 251 252 253 255 257 259 259 261 263 265 267 269 270 271 272 274 275 277 278 279 280 281 282 283 284 285 287 288 289 290 290 290 291 290
241 242 243 244 245 246 247 248 250 251 252 253 255 257 259 260 261 263 264 266 268 270 271 272 273 275 277 278 279 280 281 281 282 284 285 286 287 288 289 290 290 290 290
240 242 243 245 246 247 248 250 251 251 252 253 255 257 258 259 261 263 263 265 267 270 271 272 273 275 276 278 279 280 280 281 282 283 284 285 287 288 288 289 289 290 291
240 242 243 245 246 247 249 250 251 252 253 254 255 257 258 259 260 262 264 265 268 270 271 272 273 275 276 277 278 279 280 281 282 283 284 285 286 287 287 288 289 289 290
240 242 243 244 246 247 248 250 251 252 253 254 255 257 258 260 261 262 264 265 267 269 271 271 272 275 276 276 278 279 279 280 281 282 283 285 286 286 287 287 288 288 290
Height
5822 5825 5828 5830 5832 5834 5836 5838 5840 5842 5844 5845 5847 5848 5850 5851 5852 5853 5854 5855 5855 5856 5857 5857 5857 5858 5858 5858 5858 5858 5857 5857 5857 5856 5855 5854 5853 5852 5851 5850 5849 5848 5847
5816 5819 5822 5824 5827 5829 5831 5833 5835 5837 5839 5841 5843 5844 5845 5846 5848 5849 5850 5850 5851 5852 5852 5853 5853 5853 5853 5854 5854 5853 5853 5853 5852 5851 5851 5850 5849 5848 5847 5846 5844 5843 5842
5810 5813 5816 5819 5821 5823 5826 5828 5830 5832 5834 5836 5838 5839 5841 5842 5843 5844 5845 5846 5847 5847 5848 5848 5849 5849 5849 5849 5849 5849 5848 5848 5847 5847 5846 5845 5844 5843 5842 5840 5839 5838 5837
5803 5807 5810 5813 5815 5817 5820 5822 5824 5827 5828 5830 5832 5834 5836 5837 5838 5839 5840 5841 5842 5842 5843 5843 5844 5844 5844 5844 5844 5844 5843 5843 5842 5842 5841 5840 5839 5837 5836 5835 5834 5832 5831
5796 5799 5803 5806 5809 5811 5814 5816 5819 5821 5823 5825 5827 5828 5830 5831 5833 5834 5835 5836 5836 5837 5838 5838 5838 5839 5839 5838 5838 5838 5838 5837 5837 5836 5835 5834 5833 5832 5831 5829 5828 5826 5825
5789 5792 5796 5799 5801 5804 5807 5810 5812 5814 5817 5819 5821 5822 5824 5826 5827 5828 5829 5830 5831 5831 5832 5832 5833 5833 5833 5833 5833 5832 5832 5831 5831 5830 5829 5828 5827 5826 5825 5823 5822 5820 5818
5782 5785 5788 5791 5794 5797 5800 5803 5805 5808 5810 5812 5814 5816 5818 5819 5821 5822 5823 5823 5824 5825 5826 5826 5827 5827 5827 5827 5827 5826 5826 5825 5825 5824 5823 5822 5821 5820 5818 5817 5815 5813 5812
5774 5777 5780 5784 5787 5790 5793 5795 5798 5800 5803 5805 5807 5809 5811 5813 5814 5815 5816 5817 5818 5818 5819 5820 5820 5820 5821 5821 5820 5820 5820 5819 5818 5817 5816 5815 5814 5813 5811 5810 5808 5806 5805
5765 5768 5772 5775 5779 5782 5785 5787 5790 5793 5795 5798 5800 5802 5804 5806 5807 5808 5809 5810 5811 5812 5812 5813 5813 5813 5813 5814 5814 5813 5813 5812 5812 5811 5809 5808 5807 5805 5804 5802 5801 5799 5797
5757 5760 5763 5767 5770 5773 5776 5779 5782 5785 5787 5790 5792 5794 5796 5798 5800 5801 5803 5803 5804 5805 5805 5806 5806 5806 5806 5806 5806 5806 5806 5805 5804 5803 5802 5801 5800 5798 5796 5795 5793 5791 5789
5748 5751 5755 5758 5762 5765 5768 5771 5774 5777 5779 5782 5784 5786 5788 5790 5792 5794 5795 5796 5797 5798 5798 5798 5798 5799 5799 5799 5798 5798 5798 5797 5797 5796 5795 5793 5792 5790 5789 5787 5785 5783 5781
5739 5743 5746 5750 5753 5756 5760 5763 5766 5768 5771 5774 5776 5778 5780 5782 5784 5786 5787 5788 5789 5790 5790 5790 5791 5791 5791 5791 5790 5790 5790 5789 5788 5788 5787 5786 5784 5782 5780 5779 5777 5775 5773
5729 5734 5737 5741 5744 5748 5751 5754 5757 5760 5763 5765 5768 5770 5772 5774 5775 5777 5779 5780 5781 5782 5782 5783 5783 5782 5782 5782 5782 5782 5781 5781 5780 5779 5778 5777 5775 5774 5772 5770 5768 5766 5764
5719 5723 5727 5731 5735 5739 5742 5745 5748 5751 5754 5757 5759 5761 5764 5766 5767 5768 5770 5771 5772 5774 5774 5775 5774 5774 5774 5774 5773 5773 5773 5772 5771 5770 5769 5768 5766 5764 5763 5761 5759 5757 5755
5709 5713 5717 5721 5725 5729 5733 5736 5739 5742 5745 5748 5751 5753 5755 5757 5758 5760 5761 5762 5764 5764 5766 5766 5766 5765 5765 5765 5765 5764 5764 5763 5762 5760 5759 5758 5756 5755 5753 5751 5749 5747 5745
5698 5703 5707 5711 5715 5719 5723 5726 5730 5733 5736 5739 5741 5744 5746 5747 5749 5750 5752 5753 5754 5755 5756 5757 5757 5757 5756 5756 5756 5755 5754 5753 5752 5751 5749 5748 5746 5745 5743 5741 5739 5736 5734
5687 5692 5696 5700 5704 5708 5712 5716 5720 5723 5726 5729 5732 5734 5736 5738 5740 5741 5742 5743 5744 5745 5746 5747 5747 5747 5747 5747 5746 5745 5744 5743 5742 5741 5739 5738 5736 5734 5732 5730 5728 5726 5723
5676 5681 5685 5689 5693 5697 5701 5706 5709 5713 5716 5719 5721 5724 5726 5728 5730 5731 5732 5733 5734 5735 5736 5737 5737 5737 5737 5736 5736 5735 5734 5733 5732 5731 5729 5727 5726 5724 5721 5719 5716 5714 5711
5664 5669 5673 5678 5682 5686 5690 5694 5698 5702 5705 5708 5711 5714 5716 5718 5720 5721 5722 5723 5724 5725 5726 5727 5727 5727 5726 5726 5725 5725 5724 5723 5721 5720 5718 5716 5715 5713 5710 5707 5705 5702 5699
5652 5657 5662 5666 5671 5675 5679 5683 5687 5690 5694 5697 5700 5703 5705 5707 5709 5710 5711 5713 5713 5714 5715 5716 5716 5716 5716 5715 5715 5714 5713 5712 5710 5709 5707 5705 5703 5701 5698 5696 5693 5690 5687
5640 5645 5650 5654 5658 5663 5667 5671 5675 5679 5682 5686 5689 5691 5694 5695 5697 5699 5700 5702 5703 5703 5704 5704 5705 5705 5705 5704 5704 5703 5702 5700 5699 5697 5696 5694 5692 5689 5687 5683 5680 5677 5674
5627 5632 5637 5642 5646 5651 5655 5659 5663 5667 5670 5674 5677 5680 5682 5684 5686 5687 5689 5690 5691 5692 5693 5693 5694 5694 5693 5693 5692 5691 5690 5689 5688 5687 5684 5682 5680 5677 5674 5671 5668 5665 5662
5614 5620 5625 5629 5634 5638 5642 5646 5650 5654 5658 5662 5665 5667 5670 5672 5674 5676 5677 5678 5680 5680 5681 5682 5682 5682 5681 5681 5680 5679 5678 5677 5676 5674 5672 5670 5667 5665 5662 5659 5655 5652 5649
5601 5606 5612 5617 5621 5625 5629 5634 5637 5641 5645 5649 5652 5655 5658 5660 5662 5663 5665 5666 5667 5668 5668 5669 5670 5669 5669 5668 5667 5666 5665 5664 5663 5661 5659 5658 5655 5652 5649 5646 5643 5640 5637
5587 5593 5598 5603 5608 5613 5617 5620 5624 5628 5632 5636 5639 5642 5644 5647 5649 5650 5652 5653 5654 5655 5655 5656 5656 5656 5656 5655 5654 5653 5652 5651 5650 5648 5646 5644 5642 5639 5636 5634 5630 5627 5624
5574 5579 5585 5590 5595 5599 5603 5607 5611 5615 5619 5623 5626 5628 5631 5633 5635 5636 5638 5640 5641 5642 5642 5642 5643 5643 5642 5641 5640 5639 5638 5637 5636 5635 5633 5630 5628 5625 5624 5622 5618 5614 5611